| time (UTC) | temp F | wind direction | speed knots | gust knots | rain 1hr in | rain 24hr in | rain mn in | humidity % | barometer mb |
| 20260506103607 | 59 | 165 | 3.5 | 13.9 | 0.00 | 0.32 | 0.00 | 74 | 1005.9 |
| 20260506103405 | 59 | 178 | 5.2 | 13.9 | 0.00 | 0.32 | 0.00 | 74 | 1005.9 |
| 20260506102907 | 59 | 189 | 3.5 | 12.2 | 0.00 | 0.32 | 0.00 | 74 | 1005.9 |
| 20260506102405 | 59 | 197 | 3.5 | 12.2 | 0.00 | 0.32 | 0.00 | 75 | 1005.9 |
| 20260506101509 | 58 | 172 | 3.5 | 9.6 | 0.00 | 0.32 | 0.00 | 77 | 1005.9 |
| 20260506101404 | 58 | 166 | 3.5 | 9.6 | 0.00 | 0.32 | 0.00 | 77 | 1005.9 |
| 20260506100809 | 58 | 196 | 3.5 | 10.4 | 0.00 | 0.32 | 0.00 | 75 | 1005.7 |
| 20260506100405 | 58 | 209 | 0.9 | 10.4 | 0.00 | 0.32 | 0.00 | 77 | 1005.7 |
| 20260506100109 | 58 | 200 | 2.6 | 10.4 | 0.00 | 0.32 | 0.00 | 76 | 1005.9 |
| 20260506095405 | 58 | 162 | 3.5 | 12.2 | 0.00 | 0.32 | 0.00 | 75 | 1005.7 |
| 20260506094707 | 58 | 204 | 2.6 | 14.8 | 0.00 | 0.32 | 0.00 | 75 | 1005.7 |
| 20260506094404 | 58 | 208 | 5.2 | 14.8 | 0.00 | 0.32 | 0.00 | 75 | 1005.7 |
| 20260506094007 | 58 | 199 | 5.2 | 14.8 | 0.00 | 0.32 | 0.00 | 75 | 1005.7 |
| 20260506093404 | 58 | 212 | 5.2 | 14.8 | 0.00 | 0.32 | 0.00 | 74 | 1005.7 |
| 20260506093307 | 58 | 202 | 3.5 | 14.8 | 0.00 | 0.32 | 0.00 | 75 | 1005.7 |
| 20260506092607 | 58 | 240 | 2.6 | 10.4 | 0.00 | 0.32 | 0.00 | 75 | 1005.6 |
| 20260506092404 | 58 | 241 | 3.5 | 10.4 | 0.00 | 0.32 | 0.00 | 77 | 1005.7 |
| 20260506091909 | 57 | 206 | 2.6 | 7.0 | 0.00 | 0.32 | 0.00 | 77 | 1005.7 |
| 20260506091404 | 57 | 202 | 0.9 | 9.6 | 0.00 | 0.32 | 0.00 | 78 | 1005.6 |
| 20260506091207 | 57 | 214 | 2.6 | 9.6 | 0.00 | 0.32 | 0.00 | 78 | 1005.6 |
| 20260506090404 | 56 | 213 | 2.6 | 7.0 | 0.00 | 0.32 | 0.00 | 78 | 1005.7 |
| 20260506085807 | 56 | 0 | 0.0 | 5.2 | 0.00 | 0.32 | 0.00 | 78 | 1005.7 |
| 20260506085404 | 57 | 206 | 0.9 | 5.2 | 0.00 | 0.32 | 0.00 | 80 | 1005.7 |
| 20260506084405 | 56 | 145 | 0.9 | 7.0 | 0.00 | 0.32 | 0.00 | 80 | 1005.7 |
| 20260506083404 | 56 | 209 | 2.6 | 10.4 | 0.00 | 0.32 | 0.00 | 82 | 1005.7 |
| 20260506083007 | 55 | 183 | 5.2 | 10.4 | 0.00 | 0.32 | 0.00 | 81 | 1005.7 |
| 20260506082404 | 55 | 196 | 0.9 | 10.4 | 0.00 | 0.32 | 0.00 | 82 | 1005.7 |
| 20260506082307 | 55 | 203 | 0.9 | 10.4 | 0.00 | 0.32 | 0.00 | 82 | 1005.7 |
| 20260506081607 | 55 | 235 | 3.5 | 10.4 | 0.00 | 0.32 | 0.00 | 81 | 1005.6 |
| 20260506081404 | 55 | 237 | 3.5 | 10.4 | 0.00 | 0.32 | 0.00 | 82 | 1005.6 |
| 20260506080909 | 55 | 179 | 2.6 | 7.8 | 0.00 | 0.32 | 0.00 | 82 | 1005.6 |
| 20260506080404 | 55 | 203 | 5.2 | 7.8 | 0.00 | 0.32 | 0.00 | 81 | 1005.6 |
| 20260506080209 | 55 | 175 | 3.5 | 7.8 | 0.00 | 0.32 | 0.00 | 81 | 1005.5 |
| 20260506073404 | 55 | 233 | 5.2 | 13.9 | 0.00 | 0.32 | 0.00 | 82 | 1005.2 |
| 20260506072709 | 55 | 195 | 0.9 | 10.4 | 0.00 | 0.32 | 0.00 | 84 | 1005.2 |
| 20260506072404 | 55 | 209 | 5.2 | 10.4 | 0.00 | 0.32 | 0.00 | 83 | 1005.2 |
| 20260506072009 | 54 | 247 | 3.5 | 7.8 | 0.00 | 0.32 | 0.00 | 83 | 1005.2 |
| 20260506071404 | 55 | 177 | 3.5 | 12.2 | 0.00 | 0.32 | 0.00 | 84 | 1005.2 |
| 20260506070405 | 54 | 247 | 0.9 | 12.2 | 0.00 | 0.32 | 0.00 | 84 | 1005.1 |
| 20260506062404 | 53 | 220 | 2.6 | 7.8 | 0.00 | 0.32 | 0.00 | 88 | 1005.2 |
| 20260506061707 | 53 | 197 | 0.9 | 5.2 | 0.00 | 0.32 | 0.00 | 88 | 1005.2 |
| 20260506061404 | 53 | 226 | 0.9 | 9.6 | 0.00 | 0.32 | 0.00 | 88 | 1005.4 |
| 20260506061007 | 52 | 209 | 0.9 | 9.6 | 0.00 | 0.32 | 0.00 | 89 | 1005.4 |
| 20260506060404 | 52 | 204 | 2.6 | 7.0 | 0.00 | 0.32 | 0.00 | 88 | 1005.4 |
| 20260506060307 | 52 | 192 | 0.9 | 7.0 | 0.00 | 0.32 | 0.00 | 88 | 1005.4 |
| 20260506051404 | 52 | 241 | 3.5 | 14.8 | 0.00 | 0.32 | 0.00 | 89 | 1005.4 |
| 20260506050707 | 52 | 237 | 7.8 | 14.8 | 0.00 | 0.32 | 0.00 | 89 | 1005.2 |
| 20260506050404 | 52 | 247 | 7.0 | 13.9 | 0.00 | 0.32 | 0.00 | 90 | 1005.2 |
| 20260506044607 | 52 | 249 | 3.5 | 13.9 | 0.00 | 0.32 | 0.00 | 91 | 1005.2 |
| 20260506044404 | 52 | 243 | 3.5 | 13.9 | 0.00 | 0.32 | 0.00 | 91 | 1005.4 |
| 20260506043907 | 52 | 237 | 7.0 | 16.5 | 0.00 | 0.32 | 0.00 | 92 | 1005.2 |
| 20260506043404 | 52 | 240 | 7.8 | 16.5 | 0.00 | 0.32 | 0.00 | 92 | 1005.1 |
| 20260506043207 | 52 | 250 | 3.5 | 10.4 | 0.00 | 0.32 | 0.00 | 92 | 1005.2 |
| 20260506042507 | 52 | 242 | 5.2 | 13.9 | 0.00 | 0.32 | 0.00 | 92 | 1005.1 |
| 20260506042404 | 52 | 243 | 5.2 | 13.9 | 0.00 | 0.32 | 0.00 | 92 | 1005.1 |
| 20260506041807 | 52 | 241 | 7.0 | 16.5 | 0.00 | 0.32 | 0.00 | 92 | 1005.1 |
| 20260506041404 | 52 | 246 | 5.2 | 16.5 | 0.00 | 0.32 | 0.00 | 92 | 1005.0 |
| 20260506041107 | 52 | 245 | 5.2 | 16.5 | 0.00 | 0.32 | 0.00 | 92 | 1004.9 |
| 20260506040404 | 52 | 230 | 3.5 | 12.2 | 0.00 | 0.32 | 0.00 | 92 | 1004.9 |
| 20260506035404 | 52 | 238 | 2.6 | 10.4 | 0.00 | 0.32 | 0.00 | 92 | 1004.9 |
| 20260506035009 | 52 | 212 | 2.6 | 10.4 | 0.00 | 0.32 | 0.00 | 92 | 1004.9 |
| 20260506034404 | 52 | 212 | 2.6 | 7.0 | 0.00 | 0.32 | 0.00 | 92 | 1004.7 |
| 20260506034307 | 52 | 212 | 2.6 | 7.0 | 0.00 | 0.32 | 0.00 | 92 | 1004.9 |
| 20260506033607 | 52 | 214 | 0.9 | 7.0 | 0.00 | 0.32 | 0.00 | 92 | 1005.0 |
| 20260506033404 | 52 | 219 | 0.9 | 7.0 | 0.00 | 0.32 | 0.00 | 92 | 1005.0 |
| 20260506032404 | 52 | 247 | 2.6 | 7.8 | 0.00 | 0.32 | 0.00 | 92 | 1005.0 |
| 20260506032207 | 52 | 0 | 0.0 | 7.8 | 0.00 | 0.32 | 0.00 | 91 | 1005.0 |
| 20260506031507 | 52 | 0 | 0.0 | 9.6 | 0.00 | 0.32 | 0.00 | 91 | 1005.1 |
| 20260506031404 | 52 | 217 | 0.9 | 9.6 | 0.00 | 0.32 | 0.00 | 91 | 1005.0 |
| 20260506030807 | 52 | 228 | 2.6 | 9.6 | 0.00 | 0.32 | 0.00 | 91 | 1004.9 |
| 20260506030404 | 52 | 200 | 2.6 | 9.6 | 0.00 | 0.32 | 0.00 | 91 | 1005.0 |
| 20260506030107 | 52 | 201 | 2.6 | 10.4 | 0.00 | 0.32 | 0.00 | 91 | 1004.9 |
| 20260506025404 | 52 | 205 | 3.5 | 10.4 | 0.00 | 0.32 | 0.00 | 91 | 1004.9 |
| 20260506024707 | 52 | 206 | 3.5 | 9.6 | 0.00 | 0.32 | 0.00 | 91 | 1004.9 |
| 20260506024404 | 52 | 210 | 0.9 | 9.6 | 0.00 | 0.32 | 0.00 | 91 | 1004.9 |
| 20260506023404 | 52 | 214 | 0.9 | 9.6 | 0.00 | 0.32 | 0.00 | 91 | 1004.9 |
| 20260506023309 | 52 | 209 | 0.9 | 9.6 | 0.00 | 0.32 | 0.00 | 91 | 1005.0 |
| 20260506022607 | 52 | 219 | 2.6 | 7.0 | 0.00 | 0.32 | 0.00 | 91 | 1005.2 |
| 20260506022404 | 52 | 224 | 0.9 | 7.0 | 0.00 | 0.32 | 0.00 | 91 | 1005.1 |
| 20260506021907 | 52 | 231 | 2.6 | 10.4 | 0.00 | 0.32 | 0.00 | 91 | 1005.2 |
| 20260506021404 | 52 | 208 | 0.9 | 10.4 | 0.00 | 0.32 | 0.00 | 91 | 1005.2 |
| 20260506021209 | 52 | 219 | 3.5 | 10.4 | 0.00 | 0.32 | 0.00 | 91 | 1005.2 |
| 20260506020507 | 52 | 208 | 0.9 | 12.2 | 0.00 | 0.32 | 0.00 | 91 | 1005.2 |
| 20260506020404 | 52 | 0 | 0.0 | 12.2 | 0.00 | 0.32 | 0.00 | 92 | 1005.2 |
| 20260506015807 | 52 | 201 | 5.2 | 12.2 | 0.00 | 0.32 | 0.00 | 91 | 1005.0 |
| 20260506015404 | 52 | 192 | 5.2 | 10.4 | 0.00 | 0.32 | 0.00 | 92 | 1005.1 |
| 20260506015107 | 52 | 199 | 5.2 | 10.4 | 0.00 | 0.32 | 0.00 | 92 | 1005.1 |
| 20260506014404 | 52 | 210 | 2.6 | 9.6 | 0.00 | 0.32 | 0.00 | 92 | 1005.0 |
| 20260506013404 | 52 | 220 | 0.9 | 10.4 | 0.00 | 0.32 | 0.00 | 92 | 1005.1 |
| 20260506013007 | 52 | 221 | 0.9 | 10.4 | 0.00 | 0.32 | 0.00 | 92 | 1005.1 |
| 20260506012404 | 52 | 213 | 3.5 | 7.8 | 0.00 | 0.32 | 0.00 | 92 | 1005.1 |
| 20260506011607 | 52 | 217 | 0.9 | 10.4 | 0.00 | 0.32 | 0.00 | 92 | 1005.1 |
| 20260506011404 | 52 | 224 | 0.9 | 10.4 | 0.00 | 0.32 | 0.00 | 92 | 1005.1 |
| 20260506010907 | 52 | 217 | 3.5 | 10.4 | 0.00 | 0.32 | 0.00 | 91 | 1005.2 |
| 20260506010404 | 52 | 205 | 0.9 | 5.2 | 0.00 | 0.32 | 0.00 | 91 | 1005.2 |
| 20260506010207 | 52 | 219 | 2.6 | 5.2 | 0.00 | 0.32 | 0.00 | 91 | 1005.2 |
| 20260506005507 | 52 | 201 | 0.9 | 10.4 | 0.00 | 0.32 | 0.00 | 92 | 1005.2 |
| 20260506005404 | 52 | 209 | 0.9 | 10.4 | 0.00 | 0.32 | 0.00 | 91 | 1005.2 |
| 20260506004809 | 52 | 241 | 0.9 | 5.2 | 0.00 | 0.32 | 0.00 | 92 | 1005.2 |
| 20260506004404 | 52 | 234 | 2.6 | 5.2 | 0.00 | 0.32 | 0.00 | 91 | 1005.2 |
| 20260506004107 | 52 | 225 | 0.9 | 5.2 | 0.00 | 0.32 | 0.00 | 91 | 1005.2 |
| 20260506003404 | 52 | 227 | 2.6 | 5.2 | 0.00 | 0.32 | 0.00 | 91 | 1005.2 |
| 20260506002707 | 52 | 227 | 2.6 | 10.4 | 0.00 | 0.32 | 0.00 | 91 | 1005.4 |
| 20260506002404 | 52 | 220 | 7.0 | 10.4 | 0.00 | 0.32 | 0.00 | 92 | 1005.5 |
| 20260506002007 | 52 | 225 | 3.5 | 13.9 | 0.00 | 0.32 | 0.00 | 92 | 1005.5 |
| 20260506001404 | 52 | 217 | 7.0 | 13.9 | 0.00 | 0.32 | 0.00 | 92 | 1005.5 |
| 20260506001309 | 52 | 217 | 5.2 | 13.9 | 0.00 | 0.32 | 0.00 | 92 | 1005.6 |
| 20260506000404 | 52 | 208 | 2.6 | 5.2 | 0.00 | 0.32 | 0.00 | 92 | 1005.5 |
| 20260505235907 | 52 | 0 | 0.0 | 5.2 | 0.00 | 0.32 | 0.00 | 92 | 1005.6 |
| 20260505235404 | 52 | 228 | 0.9 | 7.0 | 0.00 | 0.32 | 0.00 | 92 | 1005.6 |
| 20260505235207 | 52 | 0 | 0.0 | 9.6 | 0.00 | 0.32 | 0.00 | 92 | 1005.6 |
| 20260505234404 | 52 | 246 | 3.5 | 9.6 | 0.00 | 0.32 | 0.00 | 92 | 1005.6 |
| 20260505233809 | 52 | 233 | 2.6 | 7.0 | 0.00 | 0.32 | 0.00 | 92 | 1005.7 |
| 20260505233404 | 52 | 242 | 2.6 | 7.0 | 0.00 | 0.32 | 0.00 | 92 | 1005.7 |
| 20260505233107 | 52 | 251 | 0.9 | 7.0 | 0.00 | 0.32 | 0.00 | 92 | 1005.7 |
| 20260505232404 | 52 | 216 | 2.6 | 7.0 | 0.00 | 0.32 | 0.00 | 93 | 1005.6 |
| 20260505231707 | 52 | 224 | 0.9 | 7.0 | 0.00 | 0.32 | 0.00 | 93 | 1005.6 |
| 20260505231404 | 52 | 231 | 0.9 | 7.0 | 0.00 | 0.32 | 0.00 | 93 | 1005.6 |
| 20260505231007 | 52 | 0 | 0.0 | 5.2 | 0.00 | 0.32 | 0.00 | 93 | 1005.6 |
| 20260505230404 | 52 | 259 | 2.6 | 5.2 | 0.00 | 0.32 | 0.00 | 93 | 1005.5 |
| 20260505230309 | 52 | 243 | 0.9 | 5.2 | 0.00 | 0.32 | 0.00 | 93 | 1005.6 |
| 20260505225609 | 52 | 216 | 0.9 | 3.5 | 0.00 | 0.32 | 0.00 | 93 | 1005.6 |
| 20260505225404 | 52 | 0 | 0.0 | 5.2 | 0.00 | 0.32 | 0.00 | 93 | 1005.6 |
| 20260505224404 | 52 | 0 | 0.0 | 2.6 | 0.00 | 0.32 | 0.00 | 93 | 1005.6 |
| 20260505224209 | 52 | 0 | 0.0 | 2.6 | 0.00 | 0.32 | 0.00 | 93 | 1005.5 |
| 20260505223507 | 51 | 0 | 0.0 | 0.9 | 0.00 | 0.32 | 0.00 | 93 | 1005.6 |
| 20260505223404 | 51 | 0 | 0.0 | 0.9 | 0.00 | 0.32 | 0.00 | 93 | 1005.5 |
| 20260505222809 | 51 | 0 | 0.0 | 0.9 | 0.00 | 0.32 | 0.00 | 93 | 1005.6 |
| 20260505222404 | 51 | 0 | 0.0 | 0.9 | 0.00 | 0.32 | 0.00 | 93 | 1005.5 |
| 20260505222109 | 51 | 0 | 0.0 | 0.9 | 0.00 | 0.32 | 0.00 | 93 | 1005.5 |
| 20260505221404 | 51 | 0 | 0.0 | 0.0 | 0.00 | 0.32 | 0.00 | 93 | 1005.5 |
| 20260505220707 | 51 | 0 | 0.0 | 0.9 | 0.00 | 0.32 | 0.00 | 93 | 1005.5 |
| 20260505220404 | 51 | 0 | 0.0 | 0.9 | 0.00 | 0.32 | 0.00 | 93 | 1005.6 |
| 20260505220009 | 51 | 0 | 0.0 | 0.9 | 0.00 | 0.32 | 0.00 | 93 | 1005.7 |
| 20260505215404 | 51 | 0 | 0.0 | 2.6 | 0.00 | 0.32 | 0.00 | 93 | 1005.6 |
| 20260505214607 | 51 | 0 | 0.0 | 2.6 | 0.00 | 0.32 | 0.00 | 93 | 1005.7 |
| 20260505214404 | 51 | 0 | 0.0 | 2.6 | 0.00 | 0.32 | 0.00 | 93 | 1005.7 |
| 20260505213907 | 51 | 0 | 0.0 | 3.5 | 0.00 | 0.32 | 0.00 | 93 | 1005.7 |
| 20260505213404 | 51 | 0 | 0.0 | 3.5 | 0.00 | 0.32 | 0.00 | 93 | 1005.7 |
| 20260505212509 | 51 | 244 | 0.9 | 3.5 | 0.00 | 0.32 | 0.00 | 93 | 1005.9 |
| 20260505212404 | 51 | 297 | 0.9 | 3.5 | 0.00 | 0.32 | 0.00 | 93 | 1005.9 |
| 20260505211807 | 51 | 0 | 0.0 | 2.6 | 0.00 | 0.32 | 0.00 | 93 | 1005.7 |
| 20260505211404 | 51 | 0 | 0.0 | 2.6 | 0.00 | 0.32 | 0.00 | 93 | 1005.9 |
| 20260505211107 | 51 | 0 | 0.0 | 0.0 | 0.00 | 0.32 | 0.00 | 93 | 1006.0 |
| 20260505210404 | 51 | 0 | 0.0 | 0.9 | 0.00 | 0.32 | 0.00 | 93 | 1005.9 |
| 20260505205707 | 51 | 0 | 0.0 | 0.9 | 0.00 | 0.32 | 0.00 | 92 | 1005.7 |
| 20260505205404 | 52 | 0 | 0.0 | 2.6 | 0.00 | 0.32 | 0.00 | 92 | 1005.7 |
| 20260505205009 | 52 | 0 | 0.0 | 2.6 | 0.00 | 0.32 | 0.00 | 92 | 1005.9 |
| 20260505204404 | 52 | 0 | 0.0 | 2.6 | 0.00 | 0.32 | 0.00 | 92 | 1005.7 |
| 20260505204309 | 52 | 0 | 0.0 | 2.6 | 0.00 | 0.32 | 0.00 | 92 | 1005.6 |
| 20260505203609 | 52 | 0 | 0.0 | 0.9 | 0.00 | 0.32 | 0.00 | 92 | 1005.7 |
| 20260505203404 | 52 | 0 | 0.0 | 0.9 | 0.00 | 0.32 | 0.00 | 92 | 1005.6 |
| 20260505202404 | 52 | 0 | 0.0 | 0.9 | 0.00 | 0.32 | 0.00 | 91 | 1005.6 |
| 20260505202210 | 52 | 0 | 0.0 | 0.9 | 0.00 | 0.32 | 0.00 | 91 | 1005.7 |
| 20260505201404 | 52 | 0 | 0.0 | 0.0 | 0.00 | 0.32 | 0.00 | 91 | 1005.5 |
| 20260505200404 | 52 | 0 | 0.0 | 0.9 | 0.00 | 0.32 | 0.00 | 91 | 1005.4 |
| 20260505195404 | 52 | 0 | 0.0 | 0.9 | 0.00 | 0.32 | 0.00 | 91 | 1005.0 |
| 20260505194404 | 52 | 0 | 0.0 | 2.6 | 0.00 | 0.32 | 0.00 | 90 | 1005.0 |
| 20260505194009 | 53 | 0 | 0.0 | 3.5 | 0.00 | 0.32 | 0.00 | 90 | 1004.9 |
| 20260505193404 | 53 | 0 | 0.0 | 5.2 | 0.00 | 0.32 | 0.00 | 90 | 1004.9 |
| 20260505193309 | 53 | 289 | 0.9 | 5.2 | 0.00 | 0.32 | 0.00 | 90 | 1004.7 |
| 20260505192404 | 53 | 0 | 0.0 | 13.9 | 0.00 | 0.32 | 0.00 | 90 | 1004.7 |
| 20260505191909 | 53 | 304 | 0.9 | 12.2 | 0.00 | 0.32 | 0.00 | 90 | 1004.7 |
| 20260505191404 | 53 | 317 | 3.5 | 13.9 | 0.00 | 0.32 | 0.00 | 90 | 1004.6 |
| 20260505191209 | 53 | 307 | 5.2 | 13.9 | 0.01 | 0.32 | 0.00 | 90 | 1004.7 |
| 20260505190509 | 53 | 313 | 3.5 | 13.9 | 0.02 | 0.32 | 0.00 | 90 | 1004.7 |
| 20260505190405 | 53 | 318 | 3.5 | 16.5 | 0.02 | 0.32 | 0.00 | 90 | 1004.7 |
| 20260505185404 | 53 | 308 | 5.2 | 12.2 | 0.09 | 0.32 | 0.00 | 89 | 1004.6 |
| 20260505185109 | 53 | 314 | 0.9 | 13.9 | 0.11 | 0.32 | 0.00 | 89 | 1004.7 |
| 20260505184404 | 53 | 296 | 5.2 | 13.9 | 0.21 | 0.32 | 0.00 | 89 | 1005.1 |
| 20260505183709 | 53 | 0 | 0.0 | 5.2 | 0.31 | 0.32 | 0.00 | 89 | 1005.1 |
| 20260505183404 | 53 | 0 | 0.0 | 5.2 | 0.32 | 0.32 | 0.00 | 89 | 1005.2 |
| 20260505182404 | 53 | 0 | 0.0 | 5.2 | 0.31 | 0.31 | 0.00 | 89 | 1005.4 |
| 20260505181607 | 54 | 0 | 0.0 | 17.4 | 0.31 | 0.31 | 0.00 | 88 | 1005.1 |
| 20260505181404 | 54 | 274 | 0.9 | 17.4 | 0.31 | 0.31 | 0.00 | 88 | 1005.2 |
| 20260505180404 | 54 | 264 | 9.6 | 14.8 | 0.28 | 0.28 | 0.00 | 87 | 1005.2 |
| 20260505180209 | 54 | 263 | 9.6 | 30.4 | 0.28 | 0.28 | 0.00 | 86 | 1005.2 |
| 20260505175509 | 54 | 274 | 10.4 | 30.4 | 0.23 | 0.23 | 0.00 | 85 | 1005.2 |
| 20260505175404 | 54 | 270 | 9.6 | 26.1 | 0.22 | 0.22 | 0.00 | 85 | 1005.2 |
| 20260505174809 | 55 | 277 | 14.8 | 26.1 | 0.16 | 0.16 | 0.00 | 83 | 1005.2 |
| 20260505174404 | 56 | 251 | 13.9 | 27.8 | 0.10 | 0.10 | 0.00 | 81 | 1005.2 |
| 20260505173404 | 60 | 224 | 10.4 | 32.2 | 0.00 | 0.00 | 0.00 | 72 | 1005.2 |
| 20260505172707 | 62 | 233 | 17.4 | 28.7 | 0.00 | 0.00 | 0.00 | 65 | 1005.0 |
| 20260505172404 | 63 | 265 | 2.6 | 7.0 | 0.00 | 0.00 | 0.00 | 67 | 1004.5 |
| 20260505171404 | 63 | 0 | 0.0 | 9.6 | 0.00 | 0.00 | 0.00 | 67 | 1003.7 |
| 20260505171309 | 63 | 323 | 0.9 | 9.6 | 0.00 | 0.00 | 0.00 | 67 | 1003.7 |
| 20260505170609 | 63 | 324 | 3.5 | 9.6 | 0.00 | 0.00 | 0.00 | 67 | 1003.7 |
| 20260505170404 | 64 | 341 | 0.9 | 7.0 | 0.00 | 0.00 | 0.00 | 67 | 1003.7 |
| 20260505165909 | 64 | 0 | 0.0 | 7.8 | 0.00 | 0.00 | 0.00 | 67 | 1003.6 |
| 20260505165404 | 64 | 26 | 2.6 | 7.8 | 0.00 | 0.00 | 0.00 | 66 | 1003.7 |
| 20260505165207 | 64 | 20 | 0.9 | 7.8 | 0.00 | 0.00 | 0.00 | 66 | 1003.7 |
| 20260505164509 | 64 | 24 | 2.6 | 10.4 | 0.00 | 0.00 | 0.00 | 66 | 1003.7 |
| 20260505164404 | 64 | 32 | 2.6 | 10.4 | 0.00 | 0.00 | 0.00 | 67 | 1003.7 |
| 20260505163807 | 64 | 24 | 2.6 | 10.4 | 0.00 | 0.00 | 0.00 | 67 | 1003.7 |
| 20260505163404 | 64 | 25 | 0.9 | 14.8 | 0.00 | 0.00 | 0.00 | 68 | 1003.7 |
| 20260505163107 | 64 | 21 | 0.9 | 14.8 | 0.00 | 0.00 | 0.00 | 67 | 1003.7 |
| 20260505162404 | 64 | 9 | 3.5 | 12.2 | 0.00 | 0.00 | 0.00 | 66 | 1004.0 |
| 20260505161404 | 65 | 38 | 7.0 | 20.9 | 0.00 | 0.00 | 0.00 | 66 | 1004.1 |
| 20260505161007 | 65 | 36 | 7.0 | 20.9 | 0.00 | 0.00 | 0.00 | 66 | 1004.2 |
| 20260505160404 | 65 | 29 | 3.5 | 16.5 | 0.00 | 0.00 | 0.00 | 66 | 1004.1 |
| 20260505160307 | 65 | 19 | 7.0 | 16.5 | 0.00 | 0.00 | 0.00 | 66 | 1004.2 |
| 20260505152809 | 65 | 20 | 2.6 | 10.4 | 0.00 | 0.00 | 0.00 | 67 | 1004.4 |
| 20260505152404 | 65 | 23 | 3.5 | 12.2 | 0.00 | 0.00 | 0.00 | 67 | 1004.4 |
| 20260505152109 | 65 | 33 | 3.5 | 14.8 | 0.00 | 0.00 | 0.00 | 68 | 1004.5 |
| 20260505151404 | 65 | 24 | 2.6 | 14.8 | 0.00 | 0.00 | 0.00 | 68 | 1004.6 |
| 20260505150404 | 65 | 33 | 5.2 | 19.1 | 0.00 | 0.00 | 0.00 | 66 | 1004.6 |
| 20260505140404 | 66 | 341 | 3.5 | 13.9 | 0.00 | 0.00 | 0.00 | 62 | 1004.7 |
| 20260505130107 | 67 | 339 | 2.6 | 16.5 | 0.00 | 0.00 | 0.00 | 59 | 1005.2 |
| 20260505124707 | 68 | 19 | 3.5 | 12.2 | 0.00 | 0.00 | 0.00 | 58 | 1005.2 |
| 20260505124404 | 69 | 7 | 3.5 | 14.8 | 0.00 | 0.00 | 0.00 | 58 | 1005.2 |
| 20260505124007 | 69 | 322 | 0.9 | 14.8 | 0.00 | 0.00 | 0.00 | 59 | 1005.2 |
| 20260505123404 | 68 | 325 | 5.2 | 16.5 | 0.00 | 0.00 | 0.00 | 58 | 1005.2 |
| 20260505122607 | 67 | 321 | 7.8 | 14.8 | 0.00 | 0.00 | 0.00 | 57 | 1005.2 |
| 20260505122404 | 67 | 328 | 3.5 | 13.9 | 0.00 | 0.00 | 0.00 | 58 | 1005.2 |
| 20260505121907 | 67 | 324 | 5.2 | 19.1 | 0.00 | 0.00 | 0.00 | 59 | 1005.2 |
| 20260505121404 | 67 | 329 | 7.0 | 19.1 | 0.00 | 0.00 | 0.00 | 58 | 1005.2 |
| 20260505121207 | 67 | 325 | 7.8 | 16.5 | 0.00 | 0.00 | 0.00 | 59 | 1005.2 |
| 20260505120507 | 68 | 303 | 5.2 | 12.2 | 0.00 | 0.00 | 0.00 | 59 | 1005.2 |
| 20260505120405 | 68 | 312 | 3.5 | 19.1 | 0.00 | 0.00 | 0.00 | 60 | 1005.2 |
| 20260505115809 | 68 | 328 | 0.9 | 19.1 | 0.00 | 0.00 | 0.00 | 58 | 1005.4 |
| 20260505115404 | 68 | 323 | 9.6 | 16.5 | 0.00 | 0.00 | 0.00 | 58 | 1005.4 |
| 20260505115107 | 69 | 319 | 7.8 | 19.1 | 0.00 | 0.00 | 0.00 | 58 | 1005.2 |
| 20260505114404 | 69 | 318 | 12.2 | 19.1 | 0.00 | 0.00 | 0.00 | 56 | 1005.5 |
| 20260505113707 | 70 | 311 | 3.5 | 10.4 | 0.00 | 0.00 | 0.00 | 55 | 1005.5 |
| 20260505113404 | 69 | 27 | 0.9 | 9.6 | 0.00 | 0.00 | 0.00 | 52 | 1005.5 |
| 20260505113009 | 69 | 84 | 0.9 | 9.6 | 0.00 | 0.00 | 0.00 | 51 | 1005.5 |
| 20260505112404 | 69 | 43 | 2.6 | 10.4 | 0.00 | 0.00 | 0.00 | 54 | 1005.6 |
| 20260505112307 | 69 | 53 | 2.6 | 10.4 | 0.00 | 0.00 | 0.00 | 55 | 1005.6 |
| 20260505111404 | 68 | 6 | 0.9 | 9.6 | 0.00 | 0.00 | 0.00 | 58 | 1005.7 |
| 20260505110907 | 67 | 0 | 0.0 | 13.9 | 0.00 | 0.00 | 0.00 | 59 | 1005.7 |
| 20260505110404 | 67 | 24 | 2.6 | 13.9 | 0.00 | 0.00 | 0.00 | 58 | 1005.6 |
| 20260505110207 | 68 | 48 | 5.2 | 13.9 | 0.00 | 0.00 | 0.00 | 59 | 1005.7 |